[[{"header":{"parameterUnit":"m.s-1","parameterCategory":1,"la1":30.2991,"la2":30.254,"lo1":-89.0895,"lo2":-89.0444,"dy":0.0017,"dx":0.0017,"nx":28,"ny":28,"refTime":"2025-07-15T09:00:00:Z","depth":0,"parameterNumber":2,"parameterNumberName":"U-component_of_WINDS"},"data":[0,0,0,0,0,0,0,0,0,0,0,0,0,0,0,0,0,0,0,0,0,0,0,0,0,0,0,0,0,0,0,0,0,0,0,0,0,0,0,0,0,0,0,0,0,0,0,0,0,0,0,0,0,0,0,0,0,0,1.5001,1.5001,0,1.5006,1.5006,1.5006,1.4978,1.4977,1.4977,1.4976,1.4981,1.4982,1.4983,0,0,0,0,0,0,0,0,0,0,0,0,0,1.4969,1.4969,1.5001,1.5001,1.5001,1.5006,1.5006,1.5006,1.4978,1.4977,1.4976,1.4975,1.4981,1.4982,1.4983,0,0,0,0,0,0,0,0,0,0,0,0,0,1.4979,1.497,1.5001,1.4988,1.4987,1.5006,1.5006,1.5006,1.4979,1.4977,1.4976,1.4975,1.498,1.4982,1.4983,1.5015,0,0,1.4987,1.4987,0,0,0,0,0,0,0,0,1.4979,1.498,1.499,1.4989,1.4988,1.499,1.4996,1.5009,1.4979,1.4982,1.4976,1.4974,1.4985,1.4986,1.4989,1.5015,1.5015,1.4987,1.4988,1.4988,1.4989,0,0,0,0,0,0,0,1.4978,1.498,1.5003,1.499,1.4989,1.4982,1.4982,1.4999,1.499,1.4981,1.4979,1.498,1.4984,1.4988,1.4989,1.5016,1.4987,1.4988,1.4989,1.4989,1.5069,1.5071,0,0,0,0,0,0,1.4979,1.498,1.5003,1.5003,1.498,1.4984,1.4984,1.4991,1.499,1.4988,1.4981,1.4979,1.4987,1.4988,1.4989,1.5028,1.4988,1.499,1.499,1.5068,1.507,1.5071,0,0,0,0,0,0,1.4978,1.4981,1.5003,1.4991,1.4993,1.4986,1.4993,1.4991,1.4995,1.499,1.4988,1.4987,1.4986,1.4988,1.5009,1.5027,1.499,1.4991,1.5066,1.5068,1.507,1.5104,0,0,0,0,0,0,1.4977,1.4981,1.4993,1.4991,1.4994,1.5022,1.4995,1.4992,1.4998,1.4995,1.4995,1.4993,1.4985,1.5007,1.501,1.5029,1.4992,1.5065,1.5067,1.507,1.5101,1.5107,1.5112,0,0,0,0,0,1.4976,1.5002,1.4994,1.4997,1.5009,1.5023,1.5025,1.5014,1.4999,1.5011,1.5008,1.4993,1.5025,1.501,1.5013,1.5032,1.5064,1.5067,1.5069,1.5099,1.5106,1.5112,0,0,0,0,0,0,1.5006,1.5002,1.4992,1.5018,1.5021,1.5019,1.5033,1.5022,1.5029,1.5026,1.5013,1.5013,1.5037,1.5037,1.502,1.5064,1.5042,1.5045,1.5063,1.507,1.5075,1.5074,1.4993,0,0,0,0,0,1.5015,1.5028,1.5023,1.5047,1.5049,1.5041,1.5047,1.5039,1.5042,1.5043,1.5041,1.5044,1.5055,1.5062,1.5072,1.5101,1.5101,1.5116,1.5121,1.5126,1.5129,1.5146,1.5152,1.5081,1.5081,1.5081,0,0,1.5035,1.5034,1.5043,1.5053,1.5054,1.5067,1.5042,1.5057,1.5067,1.5045,1.5065,1.5064,1.5067,1.5093,1.5105,1.5093,1.5149,1.5129,1.5133,1.5134,1.5149,1.5156,1.5162,1.5083,1.5082,1.5082,0,0,1.5078,1.5078,1.5098,1.51,1.5103,1.5098,1.5103,1.5102,1.5101,1.5121,1.5105,1.5117,1.5135,1.5139,1.5143,1.5188,1.5175,1.5192,1.5219,1.5236,1.5241,1.5246,1.5263,1.5269,1.5195,1.5195,1.5195,0,1.5102,1.5121,1.511,1.5126,1.5131,1.5112,1.5133,1.5136,1.5141,1.5146,1.5133,1.5157,1.5157,1.5184,1.5196,1.5199,1.5205,1.5191,1.5241,1.5246,1.5251,1.5267,1.5273,1.5197,1.5197,1.5197,1.5197,0,1.5151,1.5165,1.5181,1.5187,1.5194,1.5212,1.5204,1.5213,1.5204,1.5201,1.5222,1.5223,1.5232,1.5238,1.523,1.5264,1.5258,1.5243,1.5221,1.526,1.5274,1.528,1.52,1.5199,1.5199,1.5198,0,0,1.5212,1.5213,1.5219,1.5222,1.5224,1.5235,1.5253,1.5262,1.527,1.5275,1.529,1.5307,1.5294,1.5299,1.5291,1.5305,1.5342,1.529,1.5289,1.53,1.5381,1.5392,1.5399,1.5334,1.5335,1.5336,1.5381,0,1.5254,1.5284,1.5275,1.5306,1.5319,1.5302,1.5318,1.5321,1.5319,1.533,1.5327,1.5339,1.5321,1.5324,1.5338,1.5335,1.5359,1.5332,1.5348,1.5349,1.5348,1.5407,1.5418,1.5461,1.5387,1.5388,1.5389,0,1.5307,1.5315,1.5347,1.5348,1.5353,1.5367,1.5376,1.5387,1.5391,1.5388,1.5394,1.5383,1.5402,1.538,1.5405,1.5387,1.5393,1.5393,1.5395,1.5396,1.5371,1.541,1.5474,1.5481,1.5398,1.5397,1.5396,0,1.5349,1.5367,1.5389,1.5392,1.5394,1.5404,1.5406,1.5408,1.5415,1.5423,1.5428,1.5437,1.5443,1.5451,1.5444,1.5428,1.5471,1.5448,1.5469,1.547,1.5479,1.5478,1.5545,1.5483,1.5483,1.5483,1.5482,0,1.5397,1.5417,1.5408,1.5421,1.5444,1.5434,1.5457,1.5456,1.5459,1.5473,1.5458,1.5471,1.5461,1.5473,1.5468,1.549,1.5492,1.5491,1.5489,1.5493,1.5493,1.5497,1.5494,1.5484,1.5484,1.5484,1.5483,0,1.5447,1.5441,1.5464,1.5464,1.5465,1.5482,1.5482,1.5495,1.5492,1.5509,1.5513,1.5508,1.5522,1.5515,1.553,1.5526,1.5555,1.5549,1.5554,1.5552,1.5575,1.5573,1.5646,1.5656,1.5587,1.5588,1.5588,0,1.5478,1.5494,1.5496,1.5504,1.5506,1.552,1.5527,1.5518,1.5526,1.5532,1.5544,1.5557,1.5567,1.559,1.5588,1.5599,1.5594,1.5619,1.5595,1.5598,1.5595,1.5594,1.5596,1.5623,1.5624,1.5625,1.5625,0,1.5534,1.5531,1.5542,1.5552,1.5561,1.5569,1.5575,1.5583,1.5574,1.5584,1.5598,1.5606,1.5621,1.5634,1.5644,1.5646,1.5635,1.5633,1.5639,1.5642,1.5644,1.5644,1.5567,1.5631,1.5631,1.563,1.563,1.563,1.5576,1.559,1.5594,1.5607,1.5611,1.5617,1.563,1.5628,1.564,1.5652,1.5646,1.5662,1.5667,1.568,1.5683,1.5696,1.5687,1.5695,1.5697,1.5699,1.5702,1.5642,1.5698,1.5698,1.5698,1.5698,1.5698,0,1.5632,1.5634,1.5646,1.5656,1.5666,1.5655,1.5662,1.5671,1.5686,1.5691,1.5702,1.5719,1.5731,1.5731,1.5743,1.5754,1.5749,1.5757,1.5757,1.5757,1.571,1.5704,1.5761,1.5761,1.5761,1.5761,1.5761,1.5761,1.5663,1.5685,1.5683,1.5707,1.5709,1.5725,1.573,1.5737,1.5741,1.576,1.5771,1.5771,1.5774,1.5787,1.5798,1.5798,1.5803,1.5814,1.5811,1.5767,1.5761,1.5755,1.5749,1.5815,1.5815,1.5858,1.5858,1.5858]},{"header":{"parameterUnit":"m.s-1","parameterCategory":1,"la1":30.2991,"la2":30.254,"lo1":-89.0895,"lo2":-89.0444,"dy":0.0017,"dx":0.0017,"nx":28,"ny":28,"refTime":"2025-07-15T09:00:00:Z","depth":0,"parameterNumber":3,"parameterNumberName":"V-component_of_WINDS"},"data":[0,0,0,0,0,0,0,0,0,0,0,0,0,0,0,0,0,0,0,0,0,0,0,0,0,0,0,0,0,0,0,0,0,0,0,0,0,0,0,0,0,0,0,0,0,0,0,0,0,0,0,0,0,0,0,0,0,0,-3.114,-3.1142,0,-3.1266,-3.1268,-3.1269,-3.1268,-3.1266,-3.1265,-3.1263,-3.1391,-3.1395,-3.14,0,0,0,0,0,0,0,0,0,0,0,0,0,-3.0896,-3.0901,-3.114,-3.1142,-3.1143,-3.1266,-3.1268,-3.127,-3.1268,-3.1266,-3.1264,-3.1262,-3.1389,-3.1395,-3.1401,0,0,0,0,0,0,0,0,0,0,0,0,0,-3.101,-3.0902,-3.114,-3.1158,-3.116,-3.1266,-3.1268,-3.127,-3.1269,-3.1266,-3.1264,-3.1262,-3.1387,-3.1394,-3.1401,-3.1497,0,0,-3.1424,-3.1427,0,0,0,0,0,0,0,0,-3.1004,-3.1019,-3.1153,-3.1156,-3.116,-3.1249,-3.1229,-3.1346,-3.1269,-3.1228,-3.1263,-3.126,-3.1345,-3.1356,-3.1385,-3.1503,-3.1509,-3.1425,-3.1429,-3.1432,-3.1435,0,0,0,0,0,0,0,-3.0996,-3.1014,-3.119,-3.1155,-3.1159,-3.1159,-3.1172,-3.1251,-3.1299,-3.1231,-3.1231,-3.1246,-3.1347,-3.1378,-3.1388,-3.151,-3.1425,-3.1431,-3.1436,-3.1439,-3.1713,-3.1716,0,0,0,0,0,0,-3.0985,-3.1007,-3.1186,-3.1194,-3.1074,-3.1165,-3.118,-3.1223,-3.1298,-3.1307,-3.1248,-3.1246,-3.1367,-3.1379,-3.1393,-3.151,-3.1432,-3.1439,-3.1444,-3.171,-3.1714,-3.1717,0,0,0,0,0,0,-3.0979,-3.1,-3.1181,-3.1101,-3.1124,-3.1172,-3.122,-3.1227,-3.1258,-3.1311,-3.1319,-3.1272,-3.1365,-3.1382,-3.1471,-3.1514,-3.1443,-3.1449,-3.1707,-3.1711,-3.1715,-3.1744,0,0,0,0,0,0,-3.0972,-3.0999,-3.1036,-3.1101,-3.1128,-3.1258,-3.1223,-3.1231,-3.1271,-3.1269,-3.1335,-3.1344,-3.1364,-3.146,-3.1479,-3.1523,-3.1455,-3.1703,-3.1709,-3.1714,-3.174,-3.1749,-3.1757,0,0,0,0,0,-3.0964,-3.1039,-3.1038,-3.1059,-3.1176,-3.1261,-3.1276,-3.1299,-3.1275,-3.1312,-3.1346,-3.1342,-3.1506,-3.1469,-3.149,-3.1537,-3.1701,-3.1707,-3.1714,-3.1736,-3.1747,-3.1757,0,0,0,0,0,0,-3.0976,-3.1047,-3.1047,-3.1146,-3.1197,-3.126,-3.1308,-3.131,-3.1368,-3.1364,-3.1389,-3.1404,-3.1493,-3.1524,-3.1482,-3.1634,-3.1601,-3.1611,-3.161,-3.1622,-3.163,-3.1621,-3.1461,0,0,0,0,0,-3.099,-3.1054,-3.1113,-3.1194,-3.122,-3.126,-3.1298,-3.1311,-3.1365,-3.1386,-3.1427,-3.1479,-3.1542,-3.1584,-3.1645,-3.1744,-3.1759,-3.1787,-3.1795,-3.1802,-3.1811,-3.1866,-3.188,-3.1738,-3.1738,-3.1738,0,0,-3.102,-3.1067,-3.1106,-3.1198,-3.1239,-3.1304,-3.1278,-3.1348,-3.1396,-3.1397,-3.1484,-3.1515,-3.1575,-3.167,-3.1713,-3.1698,-3.1854,-3.1811,-3.1816,-3.1821,-3.1874,-3.1888,-3.19,-3.1742,-3.1742,-3.1741,0,0,-3.1108,-3.115,-3.1223,-3.1265,-3.1328,-3.1354,-3.1372,-3.1435,-3.1456,-3.1544,-3.1546,-3.1603,-3.1712,-3.1755,-3.179,-3.1895,-3.1893,-3.1914,-3.1959,-3.2012,-3.2023,-3.2033,-3.2071,-3.2084,-3.1923,-3.1923,-3.1923,0,-3.1138,-3.1236,-3.126,-3.133,-3.1371,-3.1375,-3.1448,-3.1488,-3.1567,-3.1595,-3.1577,-3.1714,-3.1754,-3.1859,-3.1884,-3.1913,-3.1934,-3.1907,-3.202,-3.203,-3.204,-3.2076,-3.209,-3.1925,-3.1925,-3.1925,-3.1924,0,-3.1269,-3.1338,-3.1388,-3.1466,-3.1512,-3.1583,-3.1617,-3.1661,-3.167,-3.1698,-3.1787,-3.1836,-3.1907,-3.1933,-3.1942,-3.2039,-3.2028,-3.2015,-3.1982,-3.2055,-3.2089,-3.2103,-3.1928,-3.1927,-3.1927,-3.1926,0,0,-3.1369,-3.1459,-3.1477,-3.1512,-3.1583,-3.1636,-3.1707,-3.1777,-3.1814,-3.1869,-3.193,-3.2022,-3.201,-3.2051,-3.2065,-3.2112,-3.2191,-3.2093,-3.2094,-3.2109,-3.2301,-3.2311,-3.2327,-3.219,-3.2193,-3.2195,-3.2296,0,-3.1464,-3.1592,-3.1615,-3.1727,-3.179,-3.1795,-3.1857,-3.1907,-3.1934,-3.1992,-3.2022,-3.2087,-3.2067,-3.2091,-3.2138,-3.2172,-3.223,-3.2165,-3.2247,-3.2249,-3.2232,-3.2344,-3.2355,-3.2448,-3.231,-3.2312,-3.2314,0,-3.1593,-3.1652,-3.177,-3.1832,-3.1859,-3.1915,-3.1981,-3.2036,-3.2092,-3.2109,-3.2155,-3.2164,-3.2237,-3.2201,-3.2303,-3.2258,-3.2293,-3.2315,-3.2319,-3.2327,-3.2286,-3.2356,-3.2478,-3.2492,-3.2335,-3.2333,-3.2332,0,-3.1654,-3.1763,-3.1847,-3.1877,-3.1952,-3.1991,-3.2023,-3.2077,-3.2118,-3.2176,-3.2202,-3.2268,-3.2304,-3.2354,-3.238,-3.2351,-3.248,-3.2446,-3.2496,-3.2496,-3.2523,-3.2521,-3.2653,-3.2545,-3.2545,-3.2545,-3.2545,0,-3.1759,-3.1831,-3.1876,-3.1928,-3.2008,-3.2034,-3.2113,-3.2145,-3.2192,-3.225,-3.2258,-3.2312,-3.2343,-3.2402,-3.2423,-3.2504,-3.252,-3.2536,-3.254,-3.2535,-3.2533,-3.2559,-3.2553,-3.2549,-3.2548,-3.2547,-3.2547,0,-3.1841,-3.1874,-3.1966,-3.2029,-3.2047,-3.2103,-3.2157,-3.2207,-3.2235,-3.2308,-3.2327,-3.237,-3.2439,-3.2471,-3.2556,-3.257,-3.2663,-3.2663,-3.2644,-3.2646,-3.2694,-3.2689,-3.2847,-3.2869,-3.2746,-3.2748,-3.2749,0,-3.1905,-3.1961,-3.203,-3.2069,-3.2103,-3.2167,-3.2209,-3.2236,-3.228,-3.2348,-3.239,-3.246,-3.2517,-3.2627,-3.2666,-3.2731,-3.2733,-3.2784,-3.2743,-3.2736,-3.2734,-3.2731,-3.2736,-3.2791,-3.2792,-3.2793,-3.2794,0,-3.2017,-3.203,-3.2091,-3.2158,-3.2208,-3.2261,-3.2314,-3.2345,-3.2381,-3.2429,-3.25,-3.2545,-3.2632,-3.2701,-3.2769,-3.2802,-3.2804,-3.2807,-3.2822,-3.2817,-3.2804,-3.2812,-3.2665,-3.2803,-3.2802,-3.2801,-3.2801,-3.2801,-3.2092,-3.2142,-3.2198,-3.2265,-3.2308,-3.2357,-3.2407,-3.2442,-3.2502,-3.2576,-3.2588,-3.2664,-3.2718,-3.281,-3.2845,-3.2905,-3.2892,-3.2914,-3.292,-3.2925,-3.2928,-3.2795,-3.2917,-3.2917,-3.2917,-3.2916,-3.2916,0,-3.2204,-3.2241,-3.2302,-3.2376,-3.2428,-3.2426,-3.2484,-3.2528,-3.2595,-3.2646,-3.2703,-3.2785,-3.2852,-3.2896,-3.2964,-3.3003,-3.3006,-3.302,-3.3017,-3.3025,-3.2935,-3.2915,-3.3016,-3.3016,-3.3016,-3.3016,-3.3016,-3.3016,-3.2269,-3.2353,-3.2373,-3.2478,-3.2514,-3.2589,-3.2622,-3.2667,-3.2708,-3.2799,-3.2855,-3.2884,-3.2932,-3.3004,-3.3065,-3.3076,-3.3101,-3.3116,-3.3126,-3.3042,-3.3031,-3.3021,-3.3003,-3.3121,-3.3121,-3.3211,-3.3212,-3.3213]}]]